Temperature
20 21 20 20 20 20 20 20 20 20 20 20 20 20 20 20 19 19 19 19 19 19 19 19 19 19 19 19 19 19 19 19 19 19 19 19 19 19 18 18 18 18 18
20 21 20 20 20 20 20 20 20 20 20 19 19 19 19 19 19 19 19 19 19 19 19 19 19 19 19 19 19 19 19 19 19 19 19 19 19 18 18 18 18 18 18
21 21 21 20 20 20 20 20 20 20 19 19 19 19 19 19 19 19 19 19 19 19 19 19 19 19 19 19 19 19 19 19 19 19 19 18 18 18 18 18 18 18 18
21 21 20 20 20 20 20 20 20 20 19 19 19 19 19 19 19 19 19 19 19 19 19 19 19 19 19 19 19 19 19 19 19 18 18 18 18 18 19 19 18 18 18
21 21 21 20 20 20 20 20 20 19 19 19 19 19 19 19 19 19 19 19 19 19 19 19 19 19 19 19 19 19 19 19 19 18 18 18 18 18 18 18 19 18 18
21 21 21 21 20 20 20 20 20 19 19 19 19 19 19 19 19 19 19 19 19 19 19 19 19 19 19 19 19 19 19 19 19 18 18 18 18 18 18 18 19 18 18
21 21 21 21 20 20 20 20 20 20 19 19 19 19 19 19 19 19 19 19 19 19 19 19 19 19 19 19 19 19 19 19 19 18 18 18 18 18 18 18 18 18 18
21 21 21 21 20 20 20 20 20 20 20 19 19 19 19 19 19 19 19 19 19 19 19 19 19 19 19 19 19 19 19 19 18 18 18 18 18 18 18 18 18 18 18
22 21 21 21 21 20 20 20 20 20 20 20 19 19 19 19 19 19 19 19 19 19 19 19 19 19 19 19 19 19 19 19 19 18 18 19 19 19 19 18 18 18 18
22 21 21 21 20 20 20 20 20 20 20 20 19 19 19 19 19 19 19 19 19 19 19 19 19 19 19 19 19 19 19 19 19 19 18 19 19 19 19 19 18 18 18
22 21 21 21 20 20 20 20 20 20 20 19 19 19 19 19 19 19 19 19 19 19 19 19 19 19 19 19 19 19 19 19 19 19 19 19 19 19 19 19 18 18 18
22 22 21 21 21 20 20 20 20 19 19 19 19 19 19 19 19 19 19 19 19 19 19 19 19 19 19 19 19 19 19 19 19 19 19 19 19 19 19 18 18 18 18
22 22 22 21 21 21 20 20 20 20 19 19 19 19 19 19 19 19 19 19 19 19 19 19 19 19 19 19 19 19 19 19 19 19 19 19 19 19 19 18 18 18 18
22 22 21 21 21 21 20 20 20 20 20 19 19 19 19 19 19 19 19 19 19 19 19 19 19 19 19 19 19 19 19 19 19 19 19 19 19 19 19 19 18 18 18
22 22 21 21 21 21 20 20 20 20 20 20 20 19 19 19 19 19 19 19 19 19 19 19 19 19 19 19 19 19 19 19 19 19 19 19 19 19 19 19 19 18 18
22 22 21 21 21 21 20 20 20 20 20 20 20 19 19 19 19 19 19 19 19 19 19 19 19 19 19 19 19 19 19 19 19 19 19 19 19 19 19 19 18 18 18
22 22 21 21 21 21 20 20 20 20 20 20 20 19 19 19 19 19 19 19 19 19 19 19 19 19 19 19 19 19 19 19 19 19 19 19 19 19 19 19 18 18 18
22 22 21 21 21 21 20 20 20 20 20 20 20 19 19 19 19 19 19 19 19 19 19 19 19 19 19 19 19 19 19 19 19 19 19 19 19 19 19 19 18 18 18
22 22 21 21 21 21 20 20 20 20 20 20 20 19 19 19 19 19 19 19 19 19 19 19 19 19 19 19 19 19 19 19 19 19 19 19 19 19 19 19 18 18 18
22 22 21 21 21 21 20 20 20 20 20 20 20 19 19 19 19 19 19 19 19 19 19 19 19 19 19 19 19 19 19 19 19 19 19 19 19 19 19 19 18 18 18
22 22 21 21 21 21 20 20 20 20 20 20 20 19 19 19 19 19 19 19 19 19 19 19 18 18 18 19 19 19 19 19 19 19 19 19 19 19 19 19 18 18 18
22 22 21 21 21 21 21 21 20 20 20 20 20 19 19 19 19 19 19 19 19 19 19 19 19 18 18 18 19 18 19 19 19 19 19 19 19 19 18 18 18 18 18
23 22 22 21 21 21 21 21 20 20 20 20 19 19 19 19 19 19 19 19 19 19 19 19 19 18 18 18 19 18 18 18 18 19 19 19 19 19 19 18 18 18 18
23 22 22 22 21 21 21 20 20 20 20 20 19 19 19 19 19 19 19 19 19 19 18 18 18 18 18 18 18 18 18 18 18 18 19 19 19 19 18 18 18 18 18
23 22 22 22 21 21 21 20 20 20 20 20 19 19 19 19 19 19 19 19 19 19 18 18 18 18 18 18 18 18 18 18 18 18 18 18 18 18 18 18 18 18 18
23 22 22 21 21 21 21 20 20 20 20 20 19 19 19 19 19 19 19 19 19 19 18 18 18 18 18 18 18 18 18 18 18 18 18 18 18 18 18 18 18 18 18
Wind_Speed
10 11 12 12 11 10 10 10 10 9 10 9 9 9 9 9 10 10 11 12 12 12 11 11 11 10 9 9 9 9 9 9 10 10 10 10 10 10 9 9 8 10 12
12 12 13 12 11 10 10 10 9 10 10 10 9 9 9 9 9 10 11 11 11 11 11 10 10 10 9 9 9 9 8 8 8 8 8 8 8 8 8 8 8 10 12
13 13 13 12 11 10 10 9 9 9 10 10 9 9 9 9 9 10 10 10 10 10 10 10 10 9 9 8 8 8 7 6 6 7 7 7 8 8 9 9 10 11 10
13 13 12 12 11 11 9 9 9 9 9 9 9 8 8 8 9 10 10 10 9 10 10 10 9 8 8 7 7 6 6 5 5 5 5 6 7 10 10 9 9 10 10
14 14 14 12 11 11 10 9 8 8 8 9 8 8 8 8 9 9 9 9 9 9 9 8 8 7 7 7 6 6 5 5 5 6 4 5 7 11 11 9 8 8 8
15 16 15 13 12 11 10 9 8 8 8 8 8 8 7 8 9 9 9 9 8 8 8 7 7 6 6 6 6 6 6 6 6 5 5 7 8 11 11 9 8 8 8
14 15 15 14 13 12 10 9 9 9 8 7 7 7 7 7 8 8 8 8 8 8 7 6 6 5 6 6 6 6 7 7 7 5 4 7 10 13 11 10 8 8 7
14 14 14 14 13 12 10 9 9 9 8 7 7 7 7 8 8 8 9 8 8 7 6 6 6 5 6 6 7 8 8 8 6 4 5 8 13 14 12 10 9 8 8
13 13 12 13 12 11 11 10 9 8 8 7 6 6 7 7 7 8 9 8 7 7 6 6 6 6 7 8 8 9 9 10 6 4 5 7 12 14 12 11 9 8 8
11 11 11 11 11 11 11 10 9 8 8 7 6 6 6 7 7 8 8 8 8 8 7 7 7 8 8 9 10 10 10 9 7 5 4 9 14 13 12 10 9 8 8
9 9 8 9 8 9 10 11 10 9 8 7 6 6 6 6 7 8 8 9 8 8 8 8 9 9 9 10 12 12 11 8 5 3 5 12 14 13 12 10 9 9 8
9 8 7 7 7 7 7 9 7 7 7 6 5 6 5 4 4 6 9 10 9 8 8 9 10 10 10 8 10 12 9 8 4 3 6 15 14 13 12 11 10 9 9
9 7 7 6 6 5 5 6 4 4 6 5 5 5 3 2 2 4 5 7 8 8 7 8 9 8 8 6 4 6 8 5 4 5 9 14 14 13 12 11 10 10 9
9 8 6 7 5 4 4 3 4 3 3 3 5 4 2 1 1 1 1 2 4 4 4 4 4 5 5 4 4 5 5 4 3 5 8 13 14 14 13 12 11 11 10
8 8 7 7 5 4 3 0 2 2 3 4 4 3 2 2 1 1 1 0 1 1 2 2 2 3 3 3 4 4 3 2 4 5 6 12 13 13 12 12 11 11 11
8 7 7 7 6 4 2 1 1 2 3 4 4 5 2 2 2 1 1 1 1 1 0 1 2 2 2 2 2 2 2 2 2 5 6 10 12 13 12 11 11 11 11
8 7 7 8 6 4 3 2 2 2 3 3 4 5 4 3 2 1 0 0 1 1 1 1 2 1 2 2 2 2 2 2 2 3 6 7 9 11 12 12 11 11 11
9 7 6 5 7 6 3 2 1 1 3 3 4 4 4 3 1 0 0 0 1 1 1 0 0 1 2 1 1 2 2 1 2 3 4 6 7 8 10 13 12 11 12
9 8 6 4 5 5 4 3 2 1 2 2 3 3 3 2 1 1 1 0 1 0 1 1 2 1 2 2 2 2 2 1 1 3 2 4 5 7 8 11 12 12 11
10 9 7 6 4 4 3 3 2 1 2 2 3 3 3 2 1 1 1 1 0 1 1 1 1 2 2 2 3 2 1 2 2 2 2 3 4 6 7 7 9 10 12
10 9 8 6 6 4 3 2 2 2 2 2 3 4 4 2 1 0 2 1 0 1 0 1 1 2 2 1 1 2 1 3 2 2 2 1 2 3 6 7 7 6 7
11 9 9 7 6 5 4 3 3 2 2 3 1 3 3 2 0 0 1 1 1 0 0 1 1 2 2 0 0 1 1 1 2 2 3 3 3 2 3 5 6 6 5
11 11 9 8 7 5 4 3 2 2 1 1 2 2 2 2 1 0 1 0 2 1 1 1 1 2 2 2 0 0 0 1 1 1 2 2 1 2 3 3 5 6 6
10 10 9 8 7 5 4 3 3 3 2 2 2 2 2 2 1 1 1 0 1 1 1 2 1 2 2 2 2 1 1 1 1 1 1 1 2 3 2 3 3 4 5
10 10 9 8 7 6 5 4 3 2 2 2 2 2 2 2 2 1 1 1 1 1 1 2 2 2 1 2 2 1 2 1 2 2 2 2 2 2 2 3 2 3 5
9 9 9 8 7 6 5 4 4 3 2 2 2 1 2 2 2 1 1 1 1 1 2 2 3 2 2 2 3 2 2 2 2 2 3 3 2 2 2 3 3 3 4
Wind_Direction
105 109 113 109 105 103 103 104 104 109 112 112 114 115 109 104 104 106 115 118 121 124 124 124 124 123 117 111 107 107 108 105 103 105 108 111 112 113 114 114 114 109 114
113 115 116 113 110 107 105 105 105 108 115 116 117 118 117 115 115 114 118 121 122 127 127 125 122 121 119 116 113 113 112 115 120 122 123 123 123 121 118 112 105 112 118
115 119 119 115 114 112 108 106 106 108 114 116 116 117 121 126 126 123 123 120 122 128 130 128 127 126 125 122 121 123 126 133 145 149 151 149 141 134 122 115 116 123 123
119 123 119 120 117 115 111 106 107 111 118 120 120 119 123 129 130 129 129 128 129 131 132 132 131 131 133 133 136 140 147 163 178 188 184 169 152 142 137 131 128 130 129
111 115 118 122 118 117 114 110 109 112 120 126 128 125 127 137 134 131 134 134 137 136 134 136 137 139 142 147 156 164 177 198 213 224 204 149 132 144 144 143 137 139 140
111 113 119 121 121 119 117 116 113 111 117 125 131 130 128 136 141 140 141 140 141 141 138 142 146 152 158 167 177 188 202 221 234 226 183 150 143 151 150 152 151 153 156
110 113 121 122 124 122 121 119 117 116 117 123 131 138 139 143 145 145 145 147 148 147 150 155 162 170 178 187 197 208 220 234 236 226 172 149 148 157 159 159 161 164 166
111 115 124 126 125 126 124 125 123 122 125 128 131 140 148 152 154 155 154 156 159 159 164 169 180 190 197 203 213 225 234 246 232 221 177 145 153 163 166 165 165 169 175
112 119 129 133 133 132 128 125 132 132 136 139 137 143 152 156 161 160 161 165 169 173 179 181 191 203 209 216 223 230 237 250 252 230 183 142 155 164 167 168 170 175 182
110 117 124 130 135 142 140 137 139 142 146 148 152 159 162 168 173 172 172 178 181 185 190 193 204 214 222 228 231 234 240 253 238 223 169 154 163 169 169 171 174 179 183
110 112 118 124 135 139 140 143 152 154 161 164 168 177 182 186 183 181 178 175 184 189 192 203 213 218 227 232 231 233 238 240 224 202 171 164 168 171 171 175 180 185 184
120 119 119 126 122 129 130 133 151 158 156 173 169 180 198 192 170 155 164 179 190 196 200 212 223 225 229 228 228 224 234 226 211 190 175 165 172 176 177 181 187 188 189
130 122 120 116 111 113 117 135 147 149 150 163 148 150 163 160 149 151 167 179 195 202 210 207 218 229 228 220 216 213 226 221 204 169 165 165 173 179 182 185 190 192 194
127 123 118 107 97 83 92 118 142 148 149 138 132 136 139 115 77 107 192 182 197 190 195 202 207 229 238 237 229 230 226 209 180 152 164 172 177 181 185 188 192 194 196
127 126 117 104 98 88 71 86 131 136 125 118 129 125 113 114 88 72 26 10 277 215 199 214 224 234 233 230 232 226 226 203 182 159 170 182 182 184 189 192 194 196 198
131 127 121 119 119 121 135 222 137 134 121 122 126 122 128 111 87 60 341 334 318 340 267 253 251 243 249 255 256 248 227 192 182 165 175 187 190 190 191 193 196 200 202
134 133 133 140 136 142 160 206 167 156 133 130 127 127 122 101 91 66 256 281 18 321 258 228 271 266 251 263 264 257 244 191 162 172 185 183 186 194 196 195 196 202 206
138 138 143 151 145 152 167 201 166 126 117 122 117 119 117 105 101 255 354 33 302 252 210 227 270 330 310 291 257 267 259 198 202 188 190 182 181 189 196 199 200 205 209
140 142 148 141 139 156 166 189 189 154 115 119 116 109 112 117 124 278 81 323 274 325 22 1 55 325 296 309 270 227 227 205 218 218 202 183 176 179 181 190 198 205 207
145 146 150 146 143 154 156 169 171 146 130 119 112 113 116 125 117 321 206 204 324 51 22 29 339 289 280 267 286 288 252 220 209 202 216 186 174 180 175 179 188 203 208
147 148 151 153 150 154 153 159 160 164 159 135 139 129 133 130 162 255 324 333 344 102 75 327 340 305 275 246 293 298 258 229 209 189 204 203 181 179 175 175 185 188 198
155 155 154 155 156 165 171 175 171 170 164 144 137 129 132 121 64 323 15 349 326 224 210 296 306 299 304 275 251 293 315 285 263 215 189 210 196 179 196 187 179 181 189
161 162 165 162 159 168 170 175 163 149 176 133 140 139 137 136 149 59 109 102 285 272 272 249 274 307 301 297 249 119 248 253 298 259 227 215 178 202 214 196 195 186 192
163 160 156 155 155 159 162 169 178 173 174 166 161 147 158 178 207 200 146 215 283 279 300 280 11 301 299 300 298 265 203 181 241 279 279 228 222 222 228 219 203 185 189
161 159 154 153 155 159 169 168 179 188 165 147 156 167 188 206 225 199 153 261 276 263 290 301 306 299 293 287 297 294 286 259 242 234 260 262 248 220 212 223 205 191 196
157 155 152 152 157 162 174 180 181 186 179 178 189 188 221 223 222 251 159 290 286 287 291 269 272 274 270 282 287 278 270 271 266 257 264 264 258 246 225 220 210 203 196
Height
1501 1501 1502 1503 1503 1504 1504 1505 1506 1506 1507 1508 1510 1511 1512 1513 1514 1515 1517 1519 1521 1523 1525 1526 1528 1529 1531 1532 1534 1535 1537 1538 1539 1540 1542 1543 1544 1545 1546 1547 1547 1548 1549
1501 1502 1503 1504 1504 1505 1506 1506 1507 1508 1509 1510 1511 1512 1514 1514 1515 1516 1518 1520 1522 1524 1526 1528 1529 1530 1532 1533 1535 1536 1537 1539 1540 1541 1543 1544 1545 1546 1547 1547 1548 1549 1550
1501 1502 1503 1505 1506 1506 1507 1508 1509 1509 1510 1511 1513 1514 1515 1516 1517 1518 1520 1522 1523 1525 1527 1529 1530 1531 1533 1534 1536 1537 1538 1540 1541 1542 1544 1545 1546 1547 1548 1549 1549 1550 1550
1501 1502 1504 1505 1507 1508 1508 1509 1510 1511 1512 1513 1514 1515 1516 1517 1518 1520 1521 1523 1525 1526 1528 1530 1531 1532 1534 1535 1537 1538 1539 1541 1542 1543 1545 1546 1547 1548 1549 1549 1550 1550 1551
1502 1503 1505 1506 1508 1509 1510 1511 1511 1512 1513 1514 1515 1516 1517 1518 1519 1521 1523 1524 1526 1527 1529 1531 1532 1533 1535 1536 1537 1538 1540 1541 1542 1544 1545 1546 1547 1548 1549 1549 1550 1551 1552
1504 1504 1506 1508 1509 1510 1511 1512 1512 1513 1514 1515 1516 1518 1518 1519 1521 1522 1524 1525 1526 1528 1530 1531 1533 1534 1535 1536 1538 1539 1540 1541 1543 1544 1545 1546 1547 1548 1549 1550 1550 1551 1552
1507 1507 1509 1509 1510 1511 1512 1513 1514 1515 1515 1516 1518 1519 1520 1521 1522 1524 1525 1526 1527 1529 1530 1532 1533 1534 1536 1537 1538 1539 1540 1541 1543 1544 1545 1546 1547 1548 1549 1549 1550 1551 1551
1509 1510 1510 1511 1512 1513 1514 1514 1515 1516 1517 1518 1519 1520 1521 1522 1523 1525 1526 1527 1528 1530 1531 1532 1533 1534 1535 1536 1537 1538 1540 1541 1542 1544 1545 1546 1547 1547 1548 1549 1550 1550 1551
1512 1512 1512 1512 1513 1514 1515 1515 1516 1517 1518 1520 1521 1522 1523 1524 1525 1526 1527 1528 1529 1530 1531 1532 1533 1534 1535 1536 1537 1538 1539 1541 1542 1543 1544 1545 1546 1547 1548 1548 1549 1550 1550
1514 1514 1514 1515 1515 1516 1516 1517 1518 1519 1520 1521 1522 1523 1524 1525 1526 1527 1528 1529 1530 1530 1531 1532 1533 1534 1535 1536 1537 1538 1539 1540 1541 1542 1543 1544 1545 1546 1547 1548 1548 1549 1550
1516 1516 1517 1517 1517 1518 1519 1519 1520 1521 1522 1523 1524 1525 1526 1526 1527 1528 1529 1530 1530 1531 1532 1533 1533 1534 1535 1535 1536 1537 1538 1539 1540 1541 1542 1543 1544 1545 1546 1547 1547 1548 1549
1517 1518 1518 1519 1519 1520 1521 1521 1522 1523 1523 1524 1525 1526 1527 1528 1528 1529 1530 1531 1531 1532 1533 1533 1534 1534 1535 1535 1536 1537 1537 1538 1539 1539 1541 1542 1543 1544 1545 1545 1546 1547 1548
1517 1519 1520 1520 1521 1521 1522 1523 1524 1524 1525 1525 1526 1527 1528 1529 1530 1530 1531 1531 1532 1532 1533 1534 1534 1534 1535 1535 1536 1536 1537 1538 1538 1538 1539 1540 1541 1542 1543 1544 1545 1546 1546
1518 1519 1520 1521 1521 1522 1523 1524 1525 1526 1526 1527 1527 1528 1529 1530 1530 1531 1532 1532 1532 1533 1533 1533 1534 1534 1534 1535 1535 1535 1536 1537 1537 1538 1538 1539 1540 1541 1542 1542 1543 1544 1545
1518 1519 1520 1521 1522 1523 1524 1525 1526 1527 1528 1528 1528 1528 1529 1530 1531 1531 1532 1532 1532 1533 1533 1533 1533 1533 1534 1534 1534 1535 1535 1536 1537 1537 1537 1538 1539 1540 1540 1541 1542 1543 1544
1518 1520 1521 1521 1522 1523 1524 1526 1527 1528 1528 1529 1529 1529 1529 1530 1530 1531 1532 1532 1532 1532 1532 1532 1533 1533 1533 1533 1533 1534 1534 1534 1535 1536 1536 1536 1538 1538 1539 1540 1541 1541 1542
1518 1519 1520 1521 1522 1524 1525 1526 1527 1528 1529 1529 1529 1530 1530 1530 1530 1531 1531 1531 1531 1531 1531 1532 1532 1532 1532 1532 1532 1532 1533 1533 1534 1534 1534 1535 1536 1537 1538 1538 1539 1540 1541
1517 1519 1520 1522 1523 1524 1525 1526 1527 1528 1528 1529 1530 1530 1530 1531 1531 1531 1531 1531 1531 1531 1531 1531 1531 1531 1531 1531 1531 1531 1531 1532 1532 1533 1533 1534 1535 1535 1536 1537 1537 1538 1539
1516 1518 1519 1521 1522 1523 1524 1526 1527 1528 1529 1529 1530 1530 1530 1531 1531 1531 1531 1531 1531 1530 1530 1530 1530 1530 1529 1529 1529 1530 1530 1530 1531 1532 1533 1533 1534 1534 1534 1535 1536 1537 1537
1515 1517 1518 1520 1521 1523 1524 1525 1526 1527 1528 1529 1529 1530 1530 1530 1531 1531 1531 1531 1531 1530 1529 1529 1529 1529 1528 1528 1528 1529 1529 1529 1530 1530 1531 1532 1532 1532 1533 1533 1534 1534 1535
1514 1515 1517 1519 1520 1522 1523 1524 1525 1526 1528 1529 1529 1530 1530 1530 1530 1530 1531 1530 1530 1529 1529 1528 1528 1527 1527 1527 1527 1527 1528 1528 1528 1529 1529 1530 1530 1531 1531 1531 1532 1532 1533
1512 1514 1516 1517 1519 1520 1522 1524 1525 1526 1528 1528 1529 1529 1529 1529 1530 1530 1530 1529 1529 1529 1528 1528 1527 1526 1526 1526 1526 1526 1527 1528 1527 1527 1528 1528 1529 1529 1530 1530 1530 1530 1530
1510 1512 1514 1515 1517 1519 1521 1523 1525 1526 1527 1528 1528 1528 1529 1529 1529 1529 1529 1528 1528 1528 1527 1527 1527 1526 1525 1526 1526 1526 1525 1526 1526 1526 1526 1526 1527 1527 1528 1528 1528 1528 1528
1508 1510 1512 1514 1516 1518 1520 1521 1522 1524 1525 1526 1527 1527 1528 1528 1528 1527 1527 1527 1527 1526 1526 1526 1526 1525 1525 1525 1525 1524 1525 1524 1525 1525 1525 1525 1525 1525 1526 1526 1526 1526 1526
1507 1509 1511 1513 1515 1516 1518 1519 1521 1522 1523 1525 1526 1526 1527 1527 1527 1526 1526 1526 1525 1525 1525 1525 1524 1524 1524 1524 1523 1523 1523 1523 1523 1523 1523 1523 1523 1523 1523 1523 1524 1524 1524
1504 1507 1509 1511 1513 1515 1516 1518 1519 1520 1521 1523 1524 1524 1525 1525 1525 1525 1525 1525 1524 1524 1523 1523 1523 1523 1522 1522 1522 1522 1522 1522 1521 1521 1521 1520 1520 1520 1521 1520 1521 1521 1521